| time (UTC) | temp F | wind direction | speed knots | gust knots | rain 1hr in | rain 24hr in | rain mn in | humidity % | barometer mb |
| 20260905034632 | 80 | 82 | 0.0 | 0.0 | 0.00 | 0.00 | 0.00 | 85 | 1013.9 |
| 20260905034132 | 80 | 82 | 0.0 | 0.0 | 0.00 | 0.00 | 0.00 | 84 | 1013.9 |
| 20260905033632 | 80 | 82 | 0.9 | 0.9 | 0.00 | 0.00 | 0.00 | 84 | 1014.0 |
| 20260905033132 | 80 | 82 | 0.9 | 1.7 | 0.00 | 0.00 | 0.00 | 85 | 1014.0 |
| 20260905032632 | 80 | 82 | 0.9 | 1.7 | 0.00 | 0.00 | 0.00 | 84 | 1014.0 |
| 20260905032132 | 80 | 82 | 0.0 | 1.7 | 0.00 | 0.00 | 0.00 | 84 | 1014.1 |
| 20260905031632 | 81 | 83 | 0.0 | 0.9 | 0.00 | 0.00 | 0.00 | 82 | 1014.1 |
| 20260905031132 | 81 | 83 | 0.0 | 0.0 | 0.00 | 0.00 | 0.00 | 83 | 1014.1 |
| 20260905030632 | 81 | 83 | 0.0 | 0.0 | 0.00 | 0.00 | 0.00 | 84 | 1014.0 |
| 20260905030132 | 81 | 83 | 0.0 | 0.9 | 0.00 | 0.00 | 0.00 | 84 | 1014.0 |
| 20260905025632 | 82 | 83 | 0.0 | 0.9 | 0.00 | 0.00 | 0.00 | 84 | 1014.1 |
| 20260905025132 | 82 | 83 | 0.0 | 0.0 | 0.00 | 0.00 | 0.00 | 83 | 1014.1 |
| 20260905024632 | 82 | 83 | 0.0 | 0.0 | 0.00 | 0.00 | 0.00 | 82 | 1014.1 |
| 20260905024132 | 82 | 83 | 0.0 | 0.0 | 0.00 | 0.00 | 0.00 | 80 | 1014.2 |
| 20260905023632 | 82 | 83 | 0.0 | 0.0 | 0.00 | 0.00 | 0.00 | 79 | 1014.1 |
| 20260905023132 | 82 | 83 | 0.0 | 0.9 | 0.00 | 0.00 | 0.00 | 79 | 1014.2 |
| 20260905022632 | 83 | 83 | 0.0 | 0.9 | 0.00 | 0.00 | 0.00 | 81 | 1014.3 |
| 20260905022132 | 83 | 83 | 0.0 | 0.9 | 0.00 | 0.00 | 0.00 | 79 | 1014.3 |
| 20260905021632 | 84 | 83 | 0.0 | 0.0 | 0.00 | 0.00 | 0.00 | 79 | 1014.3 |
| 20260905021132 | 84 | 83 | 0.9 | 1.7 | 0.00 | 0.00 | 0.00 | 79 | 1014.3 |
| 20260905020632 | 84 | 82 | 0.9 | 1.7 | 0.00 | 0.00 | 0.00 | 75 | 1014.2 |
| 20260905020132 | 83 | 79 | 0.0 | 2.6 | 0.00 | 0.00 | 0.00 | 77 | 1014.2 |
| 20260905015632 | 83 | 77 | 0.0 | 1.7 | 0.00 | 0.00 | 0.00 | 79 | 1014.2 |
| 20260905015132 | 83 | 77 | 0.9 | 1.7 | 0.00 | 0.00 | 0.00 | 81 | 1014.3 |
| 20260905014632 | 83 | 106 | 0.0 | 1.7 | 0.00 | 0.00 | 0.00 | 82 | 1014.2 |
| 20260905014132 | 84 | 105 | 0.0 | 0.0 | 0.00 | 0.00 | 0.00 | 79 | 1014.1 |
| 20260905013632 | 84 | 105 | 0.0 | 1.7 | 0.00 | 0.00 | 0.00 | 78 | 1014.0 |
| 20260905013132 | 85 | 98 | 0.0 | 0.9 | 0.00 | 0.00 | 0.00 | 75 | 1014.0 |
| 20260905012632 | 85 | 98 | 0.0 | 2.6 | 0.00 | 0.00 | 0.00 | 75 | 1014.0 |
| 20260905012132 | 85 | 96 | 0.0 | 0.9 | 0.00 | 0.00 | 0.00 | 75 | 1014.1 |
| 20260905011632 | 85 | 94 | 0.9 | 1.7 | 0.00 | 0.00 | 0.00 | 75 | 1014.1 |
| 20260905011132 | 85 | 71 | 0.9 | 2.6 | 0.00 | 0.00 | 0.00 | 74 | 1014.0 |
| 20260905010632 | 85 | 139 | 0.9 | 1.7 | 0.00 | 0.00 | 0.00 | 73 | 1014.1 |
| 20260905010132 | 86 | 91 | 0.9 | 3.5 | 0.00 | 0.00 | 0.00 | 74 | 1014.1 |
| 20260905005632 | 86 | 101 | 0.9 | 2.6 | 0.00 | 0.00 | 0.00 | 72 | 1014.2 |
| 20260905005132 | 87 | 177 | 0.0 | 1.7 | 0.00 | 0.00 | 0.00 | 71 | 1014.1 |
| 20260905004632 | 87 | 179 | 0.9 | 0.9 | 0.00 | 0.00 | 0.00 | 69 | 1014.1 |
| 20260905004132 | 87 | 179 | 0.9 | 1.7 | 0.00 | 0.00 | 0.00 | 68 | 1014.0 |
| 20260905003632 | 88 | 179 | 0.9 | 1.7 | 0.00 | 0.00 | 0.00 | 67 | 1014.0 |
| 20260905003132 | 88 | 179 | 0.0 | 3.5 | 0.00 | 0.00 | 0.00 | 66 | 1014.1 |
| 20260905002632 | 88 | 108 | 0.0 | 0.9 | 0.00 | 0.00 | 0.00 | 68 | 1014.1 |
| 20260905002132 | 88 | 108 | 0.0 | 1.7 | 0.00 | 0.00 | 0.00 | 68 | 1014.0 |
| 20260905001632 | 89 | 108 | 0.9 | 0.9 | 0.00 | 0.00 | 0.00 | 64 | 1014.0 |
| 20260905001132 | 89 | 108 | 0.9 | 1.7 | 0.00 | 0.00 | 0.00 | 64 | 1014.0 |
| 20260905000632 | 89 | 134 | 0.0 | 1.7 | 0.00 | 0.00 | 0.00 | 63 | 1013.9 |
| 20260905000132 | 90 | 214 | 0.0 | 0.0 | 0.00 | 0.00 | 0.00 | 62 | 1013.7 |
| 20260904235632 | 90 | 214 | 0.9 | 0.0 | 0.00 | 0.00 | 0.00 | 63 | 1013.7 |
| 20260904235132 | 90 | 214 | 1.7 | 1.7 | 0.00 | 0.00 | 0.00 | 62 | 1013.7 |
| 20260904234632 | 90 | 214 | 0.9 | 3.5 | 0.00 | 0.00 | 0.00 | 62 | 1013.6 |
| 20260904234132 | 91 | 321 | 0.0 | 1.7 | 0.00 | 0.00 | 0.00 | 63 | 1013.5 |
| 20260904233632 | 90 | 30 | 0.0 | 0.9 | 0.00 | 0.00 | 0.00 | 62 | 1013.6 |
| 20260904233132 | 90 | 30 | 0.0 | 0.9 | 0.00 | 0.00 | 0.00 | 62 | 1013.5 |
| 20260904232632 | 91 | 30 | 0.9 | 1.7 | 0.00 | 0.00 | 0.00 | 61 | 1013.7 |
| 20260904232132 | 91 | 35 | 1.7 | 3.5 | 0.00 | 0.00 | 0.00 | 58 | 1013.7 |
| 20260904231632 | 92 | 161 | 2.6 | 4.3 | 0.00 | 0.00 | 0.00 | 59 | 1013.8 |
| 20260904231132 | 93 | 6 | 3.5 | 9.6 | 0.00 | 0.00 | 0.00 | 57 | 1013.8 |
| 20260904230632 | 94 | 178 | 3.5 | 9.6 | 0.00 | 0.00 | 0.00 | 58 | 1013.6 |
| 20260904230132 | 95 | 134 | 2.6 | 6.1 | 0.00 | 0.00 | 0.00 | 58 | 1013.4 |
| 20260904225632 | 95 | 176 | 3.5 | 5.2 | 0.00 | 0.00 | 0.00 | 60 | 1013.3 |
| 20260904225132 | 95 | 229 | 4.3 | 7.0 | 0.00 | 0.00 | 0.00 | 59 | 1013.0 |
| 20260904224632 | 95 | 223 | 4.3 | 7.8 | 0.00 | 0.00 | 0.00 | 59 | 1013.1 |
| 20260904224132 | 95 | 224 | 4.3 | 7.8 | 0.00 | 0.00 | 0.00 | 58 | 1013.1 |
| 20260904223632 | 96 | 200 | 3.5 | 7.0 | 0.00 | 0.00 | 0.00 | 58 | 1013.1 |
| 20260904223132 | 96 | 253 | 3.5 | 6.1 | 0.00 | 0.00 | 0.00 | 57 | 1013.2 |
| 20260904222632 | 96 | 240 | 3.5 | 7.0 | 0.00 | 0.00 | 0.00 | 57 | 1013.2 |
| 20260904222132 | 97 | 242 | 3.5 | 5.2 | 0.00 | 0.00 | 0.00 | 55 | 1013.2 |
| 20260904221632 | 98 | 257 | 1.7 | 4.3 | 0.00 | 0.00 | 0.00 | 53 | 1013.1 |
| 20260904221132 | 99 | 144 | 0.9 | 4.3 | 0.00 | 0.00 | 0.00 | 50 | 1013.0 |
| 20260904220632 | 99 | 356 | 0.9 | 2.6 | 0.00 | 0.00 | 0.00 | 49 | 1013.0 |
| 20260904220132 | 100 | 144 | 0.9 | 3.5 | 0.00 | 0.00 | 0.00 | 48 | 1012.8 |
| 20260904215632 | 100 | 58 | 0.9 | 3.5 | 0.00 | 0.00 | 0.00 | 47 | 1012.8 |
| 20260904215132 | 100 | 127 | 1.7 | 3.5 | 0.00 | 0.00 | 0.00 | 47 | 1012.7 |
| 20260904214632 | 100 | 98 | 2.6 | 3.5 | 0.00 | 0.00 | 0.00 | 47 | 1012.7 |
| 20260904214132 | 100 | 3 | 3.5 | 4.3 | 0.00 | 0.00 | 0.00 | 47 | 1012.7 |
| 20260904213632 | 101 | 244 | 3.5 | 7.0 | 0.00 | 0.00 | 0.00 | 47 | 1012.7 |
| 20260904213132 | 100 | 95 | 4.3 | 8.7 | 0.00 | 0.00 | 0.00 | 47 | 1012.9 |
| 20260904212632 | 101 | 217 | 3.5 | 11.3 | 0.00 | 0.00 | 0.00 | 47 | 1012.7 |
| 20260904212132 | 101 | 139 | 3.5 | 7.0 | 0.00 | 0.00 | 0.00 | 47 | 1012.8 |
| 20260904211632 | 100 | 179 | 2.6 | 7.0 | 0.00 | 0.00 | 0.00 | 47 | 1012.9 |
| 20260904211132 | 101 | 162 | 2.6 | 4.3 | 0.00 | 0.00 | 0.00 | 47 | 1012.9 |
| 20260904210632 | 101 | 160 | 2.6 | 7.0 | 0.00 | 0.00 | 0.00 | 47 | 1012.8 |
| 20260904210132 | 100 | 94 | 2.6 | 6.1 | 0.00 | 0.00 | 0.00 | 47 | 1012.9 |
| 20260904205632 | 100 | 184 | 3.5 | 7.0 | 0.00 | 0.00 | 0.00 | 48 | 1013.0 |
| 20260904205132 | 101 | 148 | 2.6 | 7.0 | 0.00 | 0.00 | 0.00 | 47 | 1013.2 |
| 20260904204632 | 101 | 161 | 2.6 | 6.1 | 0.00 | 0.00 | 0.00 | 47 | 1013.2 |
| 20260904204134 | 101 | 59 | 3.5 | 7.8 | 0.00 | 0.00 | 0.00 | 46 | 1013.3 |
| 20260904203632 | 102 | 113 | 3.5 | 5.2 | 0.00 | 0.00 | 0.00 | 46 | 1013.4 |
| 20260904203132 | 102 | 137 | 2.6 | 7.0 | 0.00 | 0.00 | 0.00 | 46 | 1013.4 |
| 20260904202632 | 102 | 130 | 2.6 | 6.1 | 0.00 | 0.00 | 0.00 | 45 | 1013.4 |
| 20260904202132 | 101 | 144 | 2.6 | 9.6 | 0.00 | 0.00 | 0.00 | 47 | 1013.5 |
| 20260904201632 | 101 | 207 | 2.6 | 5.2 | 0.00 | 0.00 | 0.00 | 47 | 1013.6 |
| 20260904201132 | 100 | 167 | 2.6 | 6.1 | 0.00 | 0.00 | 0.00 | 48 | 1013.7 |
| 20260904200632 | 99 | 214 | 2.6 | 5.2 | 0.00 | 0.00 | 0.00 | 48 | 1013.8 |
| 20260904200132 | 99 | 119 | 1.7 | 6.1 | 0.00 | 0.00 | 0.00 | 48 | 1013.9 |
| 20260904195632 | 99 | 108 | 1.7 | 4.3 | 0.00 | 0.00 | 0.00 | 50 | 1014.0 |
| 20260904195132 | 99 | 207 | 2.6 | 5.2 | 0.00 | 0.00 | 0.00 | 49 | 1014.2 |
| 20260904194632 | 99 | 208 | 2.6 | 7.8 | 0.00 | 0.00 | 0.00 | 49 | 1014.2 |
| 20260904194132 | 100 | 170 | 2.6 | 7.8 | 0.00 | 0.00 | 0.00 | 48 | 1014.3 |
| 20260904193632 | 101 | 167 | 2.6 | 6.1 | 0.00 | 0.00 | 0.00 | 48 | 1014.5 |
| 20260904193132 | 101 | 194 | 3.5 | 5.2 | 0.00 | 0.00 | 0.00 | 48 | 1014.6 |
| 20260904192632 | 101 | 235 | 2.6 | 7.0 | 0.00 | 0.00 | 0.00 | 47 | 1014.6 |
| 20260904192132 | 101 | 203 | 1.7 | 6.1 | 0.00 | 0.00 | 0.00 | 47 | 1014.7 |
| 20260904191632 | 100 | 347 | 1.7 | 3.5 | 0.00 | 0.00 | 0.00 | 48 | 1014.7 |
| 20260904191132 | 99 | 3 | 2.6 | 4.3 | 0.00 | 0.00 | 0.00 | 48 | 1014.8 |
| 20260904190632 | 99 | 240 | 3.5 | 7.0 | 0.00 | 0.00 | 0.00 | 49 | 1014.9 |
| 20260904190132 | 100 | 182 | 2.6 | 6.1 | 0.00 | 0.00 | 0.00 | 48 | 1015.0 |
| 20260904185632 | 100 | 178 | 2.6 | 5.2 | 0.00 | 0.00 | 0.00 | 51 | 1015.1 |
| 20260904185132 | 99 | 220 | 4.3 | 5.2 | 0.00 | 0.00 | 0.00 | 50 | 1015.1 |
| 20260904184632 | 99 | 239 | 4.3 | 9.6 | 0.00 | 0.00 | 0.00 | 50 | 1015.1 |
| 20260904184132 | 99 | 235 | 4.3 | 7.0 | 0.00 | 0.00 | 0.00 | 51 | 1015.1 |
| 20260904183632 | 99 | 208 | 3.5 | 11.3 | 0.00 | 0.00 | 0.00 | 51 | 1015.2 |
| 20260904183132 | 97 | 195 | 2.6 | 7.0 | 0.00 | 0.00 | 0.00 | 54 | 1015.3 |
| 20260904182632 | 97 | 157 | 1.7 | 3.5 | 0.00 | 0.00 | 0.00 | 54 | 1015.4 |
| 20260904182132 | 97 | 109 | 1.7 | 6.1 | 0.00 | 0.00 | 0.00 | 53 | 1015.6 |
| 20260904181632 | 98 | 158 | 2.6 | 3.5 | 0.00 | 0.00 | 0.00 | 52 | 1015.5 |
| 20260904181132 | 98 | 197 | 3.5 | 5.2 | 0.00 | 0.00 | 0.00 | 50 | 1015.7 |
| 20260904180632 | 98 | 207 | 3.5 | 7.8 | 0.00 | 0.00 | 0.00 | 50 | 1015.9 |
| 20260904180132 | 98 | 245 | 2.6 | 7.0 | 0.00 | 0.00 | 0.00 | 52 | 1015.8 |
| 20260904175632 | 97 | 236 | 2.6 | 6.1 | 0.00 | 0.00 | 0.00 | 54 | 1015.9 |
| 20260904175133 | 96 | 153 | 2.6 | 4.3 | 0.00 | 0.00 | 0.00 | 56 | 1015.9 |
| 20260904174633 | 96 | 182 | 2.6 | 3.5 | 0.00 | 0.00 | 0.00 | 53 | 1015.9 |
| 20260904174133 | 96 | 171 | 2.6 | 6.1 | 0.00 | 0.00 | 0.00 | 54 | 1016.1 |
| 20260904173633 | 97 | 74 | 2.6 | 5.2 | 0.00 | 0.00 | 0.00 | 55 | 1016.0 |
| 20260904173133 | 97 | 181 | 1.7 | 8.7 | 0.00 | 0.00 | 0.00 | 54 | 1016.2 |
| 20260904172633 | 98 | 140 | 1.7 | 3.5 | 0.00 | 0.00 | 0.00 | 54 | 1016.3 |
| 20260904172133 | 98 | 359 | 2.6 | 5.2 | 0.00 | 0.00 | 0.00 | 54 | 1016.4 |
| 20260904171633 | 98 | 0 | 2.6 | 7.0 | 0.00 | 0.00 | 0.00 | 53 | 1016.6 |
| 20260904171133 | 99 | 160 | 3.5 | 7.0 | 0.00 | 0.00 | 0.00 | 53 | 1016.6 |
| 20260904170633 | 99 | 179 | 3.5 | 6.1 | 0.00 | 0.00 | 0.00 | 53 | 1016.6 |
| 20260904170133 | 99 | 204 | 2.6 | 5.2 | 0.00 | 0.00 | 0.00 | 53 | 1016.6 |
| 20260904165633 | 99 | 172 | 2.6 | 6.1 | 0.00 | 0.00 | 0.00 | 54 | 1016.6 |
| 20260904165133 | 99 | 188 | 0.9 | 7.0 | 0.00 | 0.00 | 0.00 | 54 | 1016.6 |
| 20260904164633 | 98 | 60 | 0.9 | 2.6 | 0.00 | 0.00 | 0.00 | 56 | 1016.6 |
| 20260904164133 | 97 | 51 | 1.7 | 4.3 | 0.00 | 0.00 | 0.00 | 58 | 1016.7 |
| 20260904163633 | 97 | 165 | 1.7 | 3.5 | 0.00 | 0.00 | 0.00 | 60 | 1016.8 |
| 20260904163133 | 96 | 184 | 1.7 | 4.3 | 0.00 | 0.00 | 0.00 | 62 | 1016.8 |
| 20260904162633 | 95 | 215 | 1.7 | 4.3 | 0.00 | 0.00 | 0.00 | 63 | 1016.7 |
| 20260904162133 | 95 | 237 | 2.6 | 4.3 | 0.00 | 0.00 | 0.00 | 63 | 1016.7 |
| 20260904161633 | 94 | 208 | 2.6 | 5.2 | 0.00 | 0.00 | 0.00 | 63 | 1016.7 |
| 20260904161133 | 94 | 245 | 2.6 | 5.2 | 0.00 | 0.00 | 0.00 | 64 | 1016.7 |
| 20260904160633 | 95 | 115 | 2.6 | 6.1 | 0.00 | 0.00 | 0.00 | 64 | 1016.7 |
| 20260904160133 | 95 | 192 | 1.7 | 6.1 | 0.00 | 0.00 | 0.00 | 64 | 1016.7 |
| 20260904155633 | 96 | 230 | 0.9 | 2.6 | 0.00 | 0.00 | 0.00 | 62 | 1016.6 |
| 20260904155133 | 95 | 1 | 0.9 | 1.7 | 0.00 | 0.00 | 0.00 | 65 | 1016.6 |
| 20260904154633 | 94 | 245 | 1.7 | 3.5 | 0.00 | 0.00 | 0.00 | 66 | 1016.6 |
| 20260904154133 | 94 | 293 | 0.9 | 2.6 | 0.00 | 0.00 | 0.00 | 66 | 1016.6 |
| 20260904153633 | 94 | 214 | 0.9 | 2.6 | 0.00 | 0.00 | 0.00 | 67 | 1016.8 |
| 20260904153133 | 93 | 133 | 0.9 | 2.6 | 0.00 | 0.00 | 0.00 | 67 | 1016.7 |
| 20260904152633 | 93 | 215 | 1.7 | 3.5 | 0.00 | 0.00 | 0.00 | 67 | 1016.8 |
| 20260904152133 | 93 | 150 | 0.9 | 3.5 | 0.00 | 0.00 | 0.00 | 68 | 1016.7 |
| 20260904151633 | 92 | 198 | 0.9 | 2.6 | 0.00 | 0.00 | 0.00 | 68 | 1016.8 |
| 20260904151133 | 92 | 262 | 0.9 | 2.6 | 0.00 | 0.00 | 0.00 | 70 | 1016.8 |
| 20260904150633 | 92 | 156 | 0.9 | 1.7 | 0.00 | 0.00 | 0.00 | 69 | 1016.6 |
| 20260904150133 | 92 | 193 | 1.7 | 2.6 | 0.00 | 0.00 | 0.00 | 71 | 1016.6 |
| 20260904145633 | 91 | 143 | 0.9 | 2.6 | 0.00 | 0.00 | 0.00 | 71 | 1016.8 |
| 20260904145133 | 90 | 231 | 0.9 | 0.9 | 0.00 | 0.00 | 0.00 | 73 | 1016.8 |
| 20260904144633 | 89 | 229 | 1.7 | 2.6 | 0.00 | 0.00 | 0.00 | 74 | 1016.7 |
| 20260904144133 | 89 | 229 | 2.6 | 3.5 | 0.00 | 0.00 | 0.00 | 74 | 1016.6 |
| 20260904143633 | 89 | 229 | 1.7 | 6.1 | 0.00 | 0.00 | 0.00 | 73 | 1016.5 |
| 20260904143133 | 89 | 221 | 0.9 | 5.2 | 0.00 | 0.00 | 0.00 | 74 | 1016.5 |
| 20260904142633 | 88 | 215 | 1.7 | 3.5 | 0.00 | 0.00 | 0.00 | 74 | 1016.5 |
| 20260904142133 | 88 | 210 | 0.9 | 2.6 | 0.00 | 0.00 | 0.00 | 75 | 1016.4 |
| 20260904141633 | 87 | 210 | 1.7 | 2.6 | 0.00 | 0.00 | 0.00 | 76 | 1016.4 |
| 20260904141133 | 86 | 205 | 1.7 | 3.5 | 0.00 | 0.00 | 0.00 | 77 | 1016.5 |
| 20260904140633 | 86 | 213 | 1.7 | 4.3 | 0.00 | 0.00 | 0.00 | 77 | 1016.5 |
| 20260904140133 | 85 | 194 | 1.7 | 2.6 | 0.00 | 0.00 | 0.00 | 80 | 1016.5 |
| 20260904135633 | 85 | 193 | 0.9 | 3.5 | 0.00 | 0.00 | 0.00 | 80 | 1016.4 |
| 20260904135133 | 84 | 182 | 0.9 | 1.7 | 0.00 | 0.00 | 0.00 | 81 | 1016.3 |
| 20260904134633 | 84 | 182 | 0.9 | 2.6 | 0.00 | 0.00 | 0.00 | 81 | 1016.3 |
| 20260904134133 | 84 | 166 | 0.0 | 1.7 | 0.00 | 0.00 | 0.00 | 82 | 1016.4 |
| 20260904133633 | 83 | 162 | 0.0 | 0.0 | 0.00 | 0.00 | 0.00 | 83 | 1016.4 |
| 20260904133133 | 82 | 162 | 0.0 | 0.9 | 0.00 | 0.00 | 0.00 | 85 | 1016.3 |
| 20260904132633 | 82 | 162 | 0.0 | 0.9 | 0.00 | 0.00 | 0.00 | 85 | 1016.3 |
| 20260904132133 | 81 | 162 | 0.0 | 1.7 | 0.00 | 0.00 | 0.00 | 88 | 1016.2 |
| 20260904131633 | 80 | 162 | 0.0 | 0.0 | 0.00 | 0.00 | 0.00 | 91 | 1016.2 |
| 20260904131133 | 78 | 162 | 0.0 | 0.0 | 0.00 | 0.00 | 0.00 | 93 | 1016.3 |
| 20260904130633 | 77 | 162 | 0.0 | 0.0 | 0.00 | 0.00 | 0.00 | 94 | 1016.2 |
| 20260904130133 | 77 | 162 | 0.0 | 0.0 | 0.00 | 0.00 | 0.00 | 94 | 1016.4 |
| 20260904125633 | 76 | 162 | 0.0 | 0.0 | 0.00 | 0.00 | 0.00 | 94 | 1016.3 |
| 20260904125133 | 76 | 162 | 0.0 | 0.0 | 0.00 | 0.00 | 0.00 | 94 | 1016.2 |
| 20260904124633 | 76 | 162 | 0.0 | 1.7 | 0.00 | 0.00 | 0.00 | 94 | 1016.0 |
| 20260904124133 | 76 | 162 | 0.0 | 0.0 | 0.00 | 0.00 | 0.00 | 94 | 1015.9 |
| 20260904123633 | 75 | 162 | 0.0 | 0.9 | 0.00 | 0.00 | 0.00 | 94 | 1015.8 |
| 20260904123133 | 75 | 162 | 0.0 | 0.0 | 0.00 | 0.00 | 0.00 | 94 | 1015.7 |
| 20260904122633 | 75 | 162 | 0.0 | 0.9 | 0.00 | 0.00 | 0.00 | 94 | 1015.7 |
| 20260904122133 | 75 | 162 | 0.0 | 0.0 | 0.00 | 0.00 | 0.00 | 94 | 1015.7 |
| 20260904121633 | 75 | 162 | 0.0 | 0.0 | 0.00 | 0.00 | 0.00 | 94 | 1015.7 |
| 20260904121133 | 75 | 162 | 0.0 | 0.0 | 0.00 | 0.00 | 0.00 | 94 | 1015.7 |
| 20260904120633 | 74 | 162 | 0.0 | 0.0 | 0.00 | 0.00 | 0.00 | 94 | 1015.6 |
| 20260904120133 | 74 | 162 | 0.0 | 0.0 | 0.00 | 0.00 | 0.00 | 94 | 1015.7 |
| 20260904115633 | 74 | 162 | 0.0 | 0.0 | 0.00 | 0.00 | 0.00 | 94 | 1015.5 |
| 20260904115133 | 74 | 162 | 0.0 | 0.0 | 0.00 | 0.00 | 0.00 | 94 | 1015.6 |
| 20260904114633 | 74 | 162 | 0.0 | 0.0 | 0.00 | 0.00 | 0.00 | 94 | 1015.5 |
| 20260904114133 | 74 | 162 | 0.0 | 0.9 | 0.00 | 0.00 | 0.00 | 94 | 1015.5 |
| 20260904113633 | 74 | 162 | 0.0 | 0.0 | 0.00 | 0.00 | 0.00 | 94 | 1015.4 |
| 20260904113133 | 74 | 162 | 0.0 | 0.0 | 0.00 | 0.00 | 0.00 | 94 | 1015.4 |
| 20260904112633 | 74 | 162 | 0.0 | 1.7 | 0.00 | 0.00 | 0.00 | 94 | 1015.3 |
| 20260904112133 | 75 | 162 | 0.0 | 0.9 | 0.00 | 0.00 | 0.00 | 93 | 1015.3 |
| 20260904111633 | 75 | 162 | 0.0 | 0.0 | 0.00 | 0.00 | 0.00 | 93 | 1015.3 |
| 20260904111133 | 75 | 162 | 0.0 | 0.0 | 0.00 | 0.00 | 0.00 | 93 | 1015.2 |
| 20260904110633 | 75 | 162 | 0.0 | 0.0 | 0.00 | 0.00 | 0.00 | 93 | 1015.2 |
| 20260904110133 | 75 | 162 | 0.0 | 0.9 | 0.00 | 0.00 | 0.00 | 93 | 1015.3 |
| 20260904105633 | 75 | 162 | 0.0 | 0.9 | 0.00 | 0.00 | 0.00 | 93 | 1015.2 |
| 20260904105133 | 75 | 162 | 0.9 | 1.7 | 0.00 | 0.00 | 0.00 | 93 | 1015.1 |
| 20260904104633 | 75 | 163 | 0.9 | 1.7 | 0.00 | 0.00 | 0.00 | 93 | 1015.2 |
| 20260904104133 | 75 | 159 | 0.9 | 2.6 | 0.00 | 0.00 | 0.00 | 93 | 1015.1 |
| 20260904103633 | 75 | 159 | 0.9 | 1.7 | 0.00 | 0.00 | 0.00 | 93 | 1015.0 |
| 20260904103133 | 75 | 159 | 0.0 | 1.7 | 0.00 | 0.00 | 0.00 | 93 | 1015.1 |
| 20260904102633 | 75 | 159 | 0.0 | 1.7 | 0.00 | 0.00 | 0.00 | 94 | 1015.1 |
| 20260904102133 | 75 | 158 | 0.0 | 0.9 | 0.00 | 0.00 | 0.00 | 93 | 1015.2 |
| 20260904101633 | 75 | 158 | 0.0 | 0.9 | 0.00 | 0.00 | 0.00 | 93 | 1015.1 |
| 20260904101133 | 75 | 158 | 0.0 | 0.0 | 0.00 | 0.00 | 0.00 | 93 | 1015.1 |
| 20260904100633 | 75 | 158 | 0.9 | 1.7 | 0.00 | 0.00 | 0.00 | 93 | 1015.1 |
| 20260904100133 | 75 | 151 | 0.9 | 1.7 | 0.00 | 0.00 | 0.00 | 93 | 1015.1 |
| 20260904095633 | 75 | 150 | 0.9 | 0.9 | 0.00 | 0.00 | 0.00 | 93 | 1015.0 |
| 20260904095133 | 75 | 151 | 0.9 | 1.7 | 0.00 | 0.00 | 0.00 | 93 | 1014.9 |
| 20260904094633 | 75 | 161 | 0.9 | 2.6 | 0.00 | 0.00 | 0.00 | 94 | 1015.0 |
| 20260904094133 | 74 | 151 | 0.0 | 2.6 | 0.00 | 0.00 | 0.00 | 94 | 1014.9 |
| 20260904093633 | 74 | 143 | 0.0 | 0.9 | 0.00 | 0.00 | 0.00 | 93 | 1014.8 |
| 20260904093133 | 74 | 143 | 0.0 | 1.7 | 0.00 | 0.00 | 0.00 | 94 | 1014.9 |
| 20260904092633 | 74 | 79 | 0.0 | 1.7 | 0.00 | 0.00 | 0.00 | 94 | 1014.9 |
| 20260904092133 | 74 | 84 | 0.0 | 2.6 | 0.00 | 0.00 | 0.00 | 94 | 1014.9 |
| 20260904091633 | 74 | 155 | 0.0 | 0.0 | 0.00 | 0.00 | 0.00 | 94 | 1014.9 |
| 20260904091133 | 74 | 172 | 0.0 | 0.0 | 0.00 | 0.00 | 0.00 | 93 | 1014.9 |
| 20260904090633 | 74 | 172 | 0.0 | 0.0 | 0.00 | 0.00 | 0.00 | 94 | 1014.8 |
| 20260904090133 | 74 | 172 | 0.0 | 0.0 | 0.00 | 0.00 | 0.00 | 94 | 1014.7 |
| 20260904085633 | 74 | 173 | 0.0 | 0.0 | 0.00 | 0.00 | 0.00 | 94 | 1014.7 |
| 20260904085133 | 74 | 165 | 0.0 | 0.0 | 0.00 | 0.00 | 0.00 | 94 | 1014.6 |
| 20260904084633 | 74 | 165 | 0.0 | 0.0 | 0.00 | 0.00 | 0.00 | 94 | 1014.5 |
| 20260904084133 | 74 | 165 | 0.0 | 0.0 | 0.00 | 0.00 | 0.00 | 94 | 1014.6 |
| 20260904083633 | 74 | 165 | 0.0 | 0.0 | 0.00 | 0.00 | 0.00 | 94 | 1014.6 |
| 20260904083133 | 74 | 165 | 0.0 | 0.0 | 0.00 | 0.00 | 0.00 | 94 | 1014.5 |
| 20260904082633 | 74 | 165 | 0.0 | 0.0 | 0.00 | 0.00 | 0.00 | 94 | 1014.6 |
| 20260904082133 | 74 | 165 | 0.0 | 0.0 | 0.00 | 0.00 | 0.00 | 94 | 1014.4 |
| 20260904081633 | 74 | 165 | 0.0 | 0.0 | 0.00 | 0.00 | 0.00 | 94 | 1014.4 |
| 20260904081133 | 74 | 165 | 0.0 | 0.0 | 0.00 | 0.00 | 0.00 | 94 | 1014.4 |
| 20260904080633 | 74 | 165 | 0.0 | 0.0 | 0.00 | 0.00 | 0.00 | 94 | 1014.4 |
| 20260904080133 | 74 | 165 | 0.0 | 0.0 | 0.00 | 0.00 | 0.00 | 94 | 1014.3 |
| 20260904075633 | 74 | 165 | 0.0 | 0.0 | 0.00 | 0.00 | 0.00 | 93 | 1014.4 |
| 20260904075133 | 74 | 165 | 0.0 | 0.0 | 0.00 | 0.00 | 0.00 | 93 | 1014.4 |
| 20260904074633 | 75 | 165 | 0.0 | 0.0 | 0.00 | 0.00 | 0.00 | 93 | 1014.4 |
| 20260904074133 | 75 | 165 | 0.0 | 0.0 | 0.00 | 0.00 | 0.00 | 93 | 1014.3 |
| 20260904073633 | 75 | 165 | 0.0 | 0.0 | 0.00 | 0.00 | 0.00 | 93 | 1014.3 |
| 20260904073133 | 75 | 165 | 0.0 | 0.0 | 0.00 | 0.00 | 0.00 | 93 | 1014.3 |
| 20260904072633 | 75 | 165 | 0.0 | 0.0 | 0.00 | 0.00 | 0.00 | 93 | 1014.4 |
| 20260904072133 | 75 | 165 | 0.0 | 0.0 | 0.00 | 0.00 | 0.00 | 93 | 1014.4 |
| 20260904071633 | 75 | 165 | 0.0 | 0.0 | 0.00 | 0.00 | 0.00 | 93 | 1014.4 |
| 20260904071133 | 75 | 165 | 0.0 | 0.0 | 0.00 | 0.00 | 0.00 | 93 | 1014.4 |
| 20260904070633 | 75 | 165 | 0.0 | 0.0 | 0.00 | 0.00 | 0.00 | 93 | 1014.5 |
| 20260904070133 | 75 | 165 | 0.0 | 0.0 | 0.00 | 0.00 | 0.00 | 93 | 1014.5 |
| 20260904065633 | 75 | 165 | 0.0 | 0.0 | 0.00 | 0.00 | 0.00 | 93 | 1014.5 |
| 20260904065133 | 75 | 165 | 0.0 | 0.0 | 0.00 | 0.00 | 0.00 | 93 | 1014.5 |
| 20260904064633 | 75 | 165 | 0.0 | 0.0 | 0.00 | 0.00 | 0.00 | 93 | 1014.5 |
| 20260904064133 | 75 | 165 | 0.0 | 0.0 | 0.00 | 0.00 | 0.00 | 93 | 1014.6 |
| 20260904063633 | 75 | 165 | 0.0 | 0.0 | 0.00 | 0.00 | 0.00 | 93 | 1014.6 |
| 20260904063133 | 75 | 165 | 0.0 | 0.0 | 0.00 | 0.00 | 0.00 | 92 | 1014.7 |
| 20260904062633 | 75 | 165 | 0.0 | 0.0 | 0.00 | 0.00 | 0.00 | 92 | 1014.7 |
| 20260904062133 | 75 | 165 | 0.0 | 0.0 | 0.00 | 0.00 | 0.00 | 92 | 1014.6 |
| 20260904061633 | 76 | 165 | 0.0 | 0.0 | 0.00 | 0.00 | 0.00 | 92 | 1014.6 |
| 20260904061133 | 76 | 165 | 0.0 | 0.0 | 0.00 | 0.00 | 0.00 | 92 | 1014.6 |
| 20260904060633 | 76 | 165 | 0.0 | 0.0 | 0.00 | 0.00 | 0.00 | 92 | 1014.6 |
| 20260904060133 | 76 | 165 | 0.0 | 0.0 | 0.00 | 0.00 | 0.00 | 92 | 1014.7 |
| 20260904055633 | 76 | 165 | 0.0 | 0.0 | 0.00 | 0.00 | 0.00 | 91 | 1014.5 |
| 20260904055133 | 77 | 165 | 0.0 | 0.0 | 0.00 | 0.00 | 0.00 | 90 | 1014.6 |
| 20260904054633 | 77 | 165 | 0.0 | 0.0 | 0.00 | 0.00 | 0.00 | 90 | 1014.7 |
| 20260904054133 | 77 | 165 | 0.0 | 0.0 | 0.00 | 0.00 | 0.00 | 90 | 1014.8 |
| 20260904053633 | 77 | 165 | 0.0 | 0.0 | 0.00 | 0.00 | 0.00 | 90 | 1014.9 |
| 20260904053133 | 77 | 165 | 0.0 | 0.0 | 0.00 | 0.00 | 0.00 | 90 | 1014.8 |
| 20260904052633 | 76 | 165 | 0.0 | 0.0 | 0.00 | 0.00 | 0.00 | 91 | 1014.7 |
| 20260904052133 | 76 | 165 | 0.0 | 0.0 | 0.00 | 0.00 | 0.00 | 91 | 1014.8 |
| 20260904051633 | 77 | 165 | 0.0 | 0.0 | 0.00 | 0.00 | 0.00 | 91 | 1014.8 |
| 20260904051133 | 77 | 165 | 0.0 | 0.0 | 0.00 | 0.00 | 0.00 | 91 | 1014.7 |
| 20260904050633 | 77 | 165 | 0.0 | 0.0 | 0.00 | 0.00 | 0.00 | 90 | 1014.7 |
| 20260904050133 | 77 | 165 | 0.0 | 0.0 | 0.00 | 0.00 | 0.00 | 90 | 1014.7 |
| 20260904045633 | 77 | 165 | 0.0 | 0.0 | 0.00 | 0.00 | 0.00 | 89 | 1014.7 |
| 20260904045134 | 77 | 165 | 0.0 | 0.0 | 0.00 | 0.00 | 0.00 | 89 | 1014.8 |
| 20260904044634 | 77 | 165 | 0.0 | 0.0 | 0.00 | 0.00 | 0.00 | 88 | 1014.8 |
| 20260904044134 | 77 | 165 | 0.0 | 0.0 | 0.00 | 0.00 | 0.00 | 88 | 1014.9 |
| 20260904043634 | 78 | 165 | 0.0 | 0.0 | 0.00 | 0.00 | 0.00 | 88 | 1014.8 |
| 20260904043134 | 78 | 165 | 0.0 | 0.0 | 0.00 | 0.00 | 0.00 | 88 | 1014.7 |
| 20260904042634 | 78 | 165 | 0.0 | 0.0 | 0.00 | 0.00 | 0.00 | 87 | 1014.7 |
| 20260904042134 | 79 | 165 | 0.0 | 0.0 | 0.00 | 0.00 | 0.00 | 87 | 1014.7 |
| 20260904041634 | 79 | 165 | 0.0 | 0.0 | 0.00 | 0.00 | 0.00 | 87 | 1014.8 |
| 20260904041134 | 79 | 165 | 0.0 | 0.0 | 0.00 | 0.00 | 0.00 | 86 | 1014.7 |
| 20260904040634 | 79 | 165 | 0.0 | 0.0 | 0.00 | 0.00 | 0.00 | 86 | 1014.8 |
| 20260904040134 | 78 | 165 | 0.0 | 0.0 | 0.00 | 0.00 | 0.00 | 86 | 1014.8 |
| 20260904035634 | 78 | 181 | 0.0 | 0.0 | 0.00 | 0.00 | 0.00 | 87 | 1014.9 |
| 20260904035134 | 78 | 181 | 0.0 | 0.0 | 0.00 | 0.00 | 0.00 | 87 | 1014.9 |